| time (UTC) | temp F | wind direction | speed MPH | gust MPH | rain 1hr in | rain 24hr in | rain mn in | humidity % | barometer mb |
| 20260502202803 | 53 | 67 | 4.0 | 10.0 | 0.00 | 0.00 | 0.00 | 35 | 1027.4 |
| 20260502202304 | 53 | 123 | 10.0 | 15.0 | 0.00 | 0.00 | 0.00 | 35 | 1027.4 |
| 20260502201803 | 53 | 87 | 4.0 | 8.0 | 0.00 | 0.00 | 0.00 | 36 | 1027.4 |
| 20260502201302 | 53 | 176 | 4.0 | 10.0 | 0.00 | 0.00 | 0.00 | 37 | 1027.4 |
| 20260502200802 | 52 | 135 | 7.0 | 20.0 | 0.00 | 0.01 | 0.00 | 36 | 1027.4 |
| 20260502200303 | 52 | 68 | 7.0 | 13.0 | 0.00 | 0.01 | 0.00 | 36 | 1027.4 |
| 20260502195803 | 52 | 178 | 7.0 | 13.0 | 0.00 | 0.02 | 0.00 | 36 | 1027.4 |
| 20260502195305 | 52 | 66 | 10.0 | 15.0 | 0.00 | 0.03 | 0.00 | 36 | 1027.4 |
| 20260502194303 | 51 | 45 | 5.0 | 12.0 | 0.00 | 0.05 | 0.00 | 35 | 1027.4 |
| 20260502193803 | 51 | 100 | 5.0 | 13.0 | 0.00 | 0.06 | 0.00 | 36 | 1027.4 |
| 20260502192803 | 51 | 134 | 4.0 | 8.0 | 0.00 | 0.10 | 0.00 | 36 | 1027.4 |
| 20260502192305 | 52 | 180 | 10.0 | 14.0 | 0.00 | 0.12 | 0.00 | 36 | 1027.4 |
| 20260502191803 | 52 | 141 | 10.0 | 17.0 | 0.00 | 0.14 | 0.00 | 37 | 1027.4 |
| 20260502191302 | 51 | 81 | 8.0 | 15.0 | 0.00 | 0.15 | 0.00 | 37 | 1027.4 |
| 20260502190803 | 51 | 90 | 6.0 | 18.0 | 0.00 | 0.16 | 0.00 | 37 | 1027.7 |
| 20260502190303 | 50 | 225 | 6.0 | 14.0 | 0.00 | 0.18 | 0.00 | 36 | 1027.7 |
| 20260502185802 | 50 | 127 | 7.0 | 13.0 | 0.00 | 0.21 | 0.00 | 37 | 1027.7 |
| 20260502185305 | 50 | 133 | 9.0 | 15.0 | 0.00 | 0.23 | 0.00 | 37 | 1027.7 |
| 20260502184803 | 50 | 99 | 6.0 | 10.0 | 0.00 | 0.27 | 0.00 | 37 | 1027.8 |
| 20260502183803 | 50 | 85 | 3.0 | 8.0 | 0.00 | 0.31 | 0.00 | 35 | 1028.1 |
| 20260502182802 | 49 | 318 | 4.0 | 9.0 | 0.00 | 0.32 | 0.00 | 35 | 1028.1 |
| 20260502182304 | 49 | 191 | 4.0 | 12.0 | 0.00 | 0.32 | 0.00 | 35 | 1028.3 |
| 20260502181802 | 49 | 164 | 3.0 | 8.0 | 0.00 | 0.32 | 0.00 | 35 | 1028.1 |
| 20260502180803 | 49 | 90 | 8.0 | 15.0 | 0.00 | 0.35 | 0.00 | 37 | 1028.4 |
| 20260502180303 | 49 | 131 | 7.0 | 10.0 | 0.00 | 0.36 | 0.00 | 36 | 1028.4 |
| 20260502170302 | 47 | 37 | 6.0 | 12.0 | 0.00 | 0.43 | 0.00 | 39 | 1028.5 |
| 20260502164303 | 46 | 142 | 4.0 | 7.0 | 0.00 | 0.45 | 0.00 | 42 | 1028.4 |
| 20260502163303 | 45 | 90 | 6.0 | 10.0 | 0.00 | 0.46 | 0.00 | 43 | 1028.4 |
| 20260502162304 | 45 | 74 | 6.0 | 10.0 | 0.00 | 0.47 | 0.00 | 46 | 1028.4 |
| 20260502161803 | 44 | 88 | 8.0 | 12.0 | 0.00 | 0.47 | 0.00 | 46 | 1028.4 |
| 20260502161303 | 44 | 153 | 7.0 | 10.0 | 0.00 | 0.48 | 0.00 | 47 | 1028.4 |
| 20260502160304 | 43 | 90 | 5.0 | 8.0 | 0.00 | 0.49 | 0.00 | 48 | 1028.4 |
| 20260502152305 | 41 | 90 | 6.0 | 8.0 | 0.00 | 0.56 | 0.00 | 54 | 1028.4 |
| 20260502151803 | 41 | 90 | 7.0 | 9.0 | 0.00 | 0.57 | 0.00 | 56 | 1028.4 |
| 20260502151303 | 41 | 90 | 4.0 | 8.0 | 0.00 | 0.57 | 0.00 | 55 | 1028.4 |
| 20260502150803 | 41 | 90 | 5.0 | 7.0 | 0.00 | 0.58 | 0.00 | 56 | 1028.4 |
| 20260502150303 | 41 | 90 | 6.0 | 8.0 | 0.00 | 0.58 | 0.00 | 58 | 1028.4 |
| 20260502130304 | 34 | 225 | 3.0 | 3.0 | 0.00 | 0.61 | 0.00 | 61 | 1027.4 |
| 20260502123803 | 31 | 247 | 6.0 | 8.0 | 0.00 | 0.61 | 0.00 | 59 | 1027.4 |
| 20260502123303 | 31 | 247 | 6.0 | 8.0 | 0.00 | 0.61 | 0.00 | 59 | 1027.1 |
| 20260502122803 | 30 | 270 | 7.0 | 9.0 | 0.00 | 0.61 | 0.00 | 61 | 1027.1 |
| 20260502121803 | 30 | 270 | 8.0 | 10.0 | 0.00 | 0.61 | 0.00 | 61 | 1027.1 |
| 20260502121303 | 30 | 270 | 8.0 | 9.0 | 0.00 | 0.61 | 0.00 | 61 | 1027.1 |
| 20260502120803 | 30 | 247 | 7.0 | 8.0 | 0.00 | 0.61 | 0.00 | 61 | 1027.1 |
| 20260502115803 | 30 | 247 | 5.0 | 7.0 | 0.00 | 0.61 | 0.00 | 60 | 1027.1 |
| 20260502115305 | 30 | 242 | 6.0 | 8.0 | 0.00 | 0.61 | 0.00 | 58 | 1027.1 |
| 20260502114803 | 29 | 225 | 7.0 | 8.0 | 0.00 | 0.61 | 0.00 | 61 | 1027.1 |
| 20260502114303 | 29 | 225 | 6.0 | 8.0 | 0.00 | 0.61 | 0.00 | 62 | 1026.8 |
| 20260502113803 | 29 | 225 | 7.0 | 8.0 | 0.00 | 0.61 | 0.00 | 61 | 1027.0 |
| 20260502112803 | 29 | 253 | 7.0 | 12.0 | 0.00 | 0.61 | 0.00 | 62 | 1026.8 |
| 20260502111803 | 29 | 225 | 6.0 | 7.0 | 0.00 | 0.61 | 0.00 | 64 | 1027.0 |
| 20260502110802 | 29 | 183 | 5.0 | 8.0 | 0.00 | 0.61 | 0.00 | 64 | 1026.8 |
| 20260502110303 | 29 | 180 | 6.0 | 9.0 | 0.00 | 0.61 | 0.00 | 64 | 1027.0 |
| 20260502105804 | 29 | 225 | 5.0 | 8.0 | 0.00 | 0.61 | 0.00 | 64 | 1026.7 |
| 20260502105306 | 29 | 225 | 6.0 | 7.0 | 0.00 | 0.61 | 0.00 | 64 | 1026.8 |
| 20260502104803 | 29 | 225 | 6.0 | 9.0 | 0.00 | 0.61 | 0.00 | 64 | 1026.7 |
| 20260502104303 | 29 | 184 | 5.0 | 9.0 | 0.00 | 0.61 | 0.00 | 64 | 1027.1 |
| 20260502103803 | 29 | 205 | 6.0 | 9.0 | 0.00 | 0.61 | 0.00 | 64 | 1026.8 |
| 20260502103303 | 29 | 225 | 6.0 | 9.0 | 0.00 | 0.61 | 0.00 | 64 | 1026.7 |
| 20260502102803 | 30 | 225 | 5.0 | 6.0 | 0.00 | 0.61 | 0.00 | 63 | 1026.8 |
| 20260502102306 | 30 | 184 | 5.0 | 8.0 | 0.00 | 0.61 | 0.00 | 63 | 1026.8 |
| 20260502101803 | 31 | 225 | 6.0 | 9.0 | 0.00 | 0.61 | 0.00 | 62 | 1027.0 |
| 20260502101303 | 31 | 260 | 5.0 | 12.0 | 0.00 | 0.61 | 0.00 | 60 | 1027.0 |
| 20260502100803 | 31 | 270 | 10.0 | 13.0 | 0.00 | 0.61 | 0.00 | 60 | 1027.1 |
| 20260502100303 | 31 | 263 | 9.0 | 13.0 | 0.00 | 0.61 | 0.00 | 61 | 1027.0 |
| 20260502091303 | 32 | 270 | 8.0 | 13.0 | 0.00 | 0.61 | 0.00 | 60 | 1026.7 |
| 20260502090303 | 32 | 270 | 10.0 | 13.0 | 0.00 | 0.61 | 0.00 | 61 | 1026.7 |
| 20260502070803 | 33 | 270 | 10.0 | 12.0 | 0.00 | 0.61 | 0.00 | 67 | 1026.8 |
| 20260502070304 | 33 | 270 | 10.0 | 13.0 | 0.00 | 0.61 | 0.00 | 67 | 1026.7 |
| 20260502065306 | 33 | 266 | 10.0 | 13.0 | 0.00 | 0.61 | 0.00 | 67 | 1026.8 |
| 20260502064803 | 33 | 256 | 10.0 | 12.0 | 0.00 | 0.61 | 0.00 | 67 | 1026.7 |
| 20260502064304 | 33 | 267 | 9.0 | 10.0 | 0.00 | 0.61 | 0.00 | 67 | 1026.7 |
| 20260502063803 | 34 | 266 | 9.0 | 12.0 | 0.00 | 0.61 | 0.00 | 66 | 1026.8 |
| 20260502062803 | 33 | 257 | 9.0 | 13.0 | 0.00 | 0.61 | 0.00 | 68 | 1026.7 |
| 20260502062306 | 33 | 254 | 10.0 | 12.0 | 0.00 | 0.61 | 0.00 | 70 | 1026.7 |
| 20260502061803 | 32 | 247 | 10.0 | 13.0 | 0.00 | 0.61 | 0.00 | 71 | 1026.7 |
| 20260502061303 | 32 | 270 | 10.0 | 13.0 | 0.00 | 0.61 | 0.00 | 72 | 1026.7 |
| 20260502060856 | 33 | 270 | 9.0 | 10.0 | 0.00 | 0.61 | 0.00 | 72 | 1026.7 |
| 20260502060304 | 33 | 247 | 8.0 | 10.0 | 0.00 | 0.61 | 0.00 | 72 | 1026.7 |
| 20260502055804 | 33 | 265 | 9.0 | 10.0 | 0.00 | 0.61 | 0.61 | 72 | 1026.7 |
| 20260502055305 | 33 | 247 | 9.0 | 10.0 | 0.00 | 0.61 | 0.61 | 72 | 1026.7 |
| 20260502054303 | 33 | 247 | 9.0 | 10.0 | 0.00 | 0.61 | 0.61 | 72 | 1026.7 |
| 20260502053304 | 33 | 247 | 9.0 | 10.0 | 0.00 | 0.61 | 0.61 | 72 | 1026.7 |
| 20260502052803 | 33 | 247 | 8.0 | 9.0 | 0.00 | 0.61 | 0.61 | 72 | 1026.7 |
| 20260502051803 | 34 | 247 | 8.0 | 9.0 | 0.00 | 0.61 | 0.61 | 72 | 1026.7 |
| 20260502051304 | 34 | 247 | 7.0 | 8.0 | 0.00 | 0.61 | 0.61 | 73 | 1026.7 |
| 20260502050803 | 33 | 247 | 6.0 | 8.0 | 0.00 | 0.61 | 0.61 | 73 | 1026.7 |
| 20260502050304 | 33 | 247 | 7.0 | 8.0 | 0.00 | 0.61 | 0.61 | 73 | 1026.7 |
| 20260502045804 | 33 | 247 | 6.0 | 8.0 | 0.00 | 0.61 | 0.61 | 72 | 1026.7 |
| 20260502044803 | 34 | 247 | 7.0 | 8.0 | 0.00 | 0.61 | 0.61 | 72 | 1026.7 |
| 20260502044303 | 34 | 247 | 7.0 | 9.0 | 0.00 | 0.61 | 0.61 | 72 | 1026.7 |
| 20260502043303 | 34 | 225 | 5.0 | 6.0 | 0.00 | 0.61 | 0.61 | 72 | 1026.7 |
| 20260502042804 | 35 | 205 | 3.0 | 3.0 | 0.00 | 0.61 | 0.61 | 72 | 1026.7 |
| 20260502042305 | 35 | 22 | 0.0 | 2.0 | 0.00 | 0.61 | 0.61 | 71 | 1026.7 |
| 20260502041803 | 35 | 270 | 3.0 | 5.0 | 0.00 | 0.61 | 0.61 | 71 | 1026.7 |
| 20260502041304 | 35 | 270 | 5.0 | 6.0 | 0.00 | 0.61 | 0.61 | 70 | 1026.7 |
| 20260502040803 | 35 | 270 | 5.0 | 7.0 | 0.00 | 0.61 | 0.61 | 70 | 1026.7 |
| 20260502040303 | 36 | 270 | 5.0 | 6.0 | 0.00 | 0.61 | 0.61 | 69 | 1026.7 |
| 20260502035306 | 36 | 297 | 4.0 | 5.0 | 0.00 | 0.61 | 0.61 | 69 | 1026.7 |
| 20260502034803 | 36 | 315 | 3.0 | 5.0 | 0.00 | 0.61 | 0.61 | 69 | 1026.7 |
| 20260502034303 | 36 | 351 | 3.0 | 3.0 | 0.00 | 0.61 | 0.61 | 69 | 1026.7 |
| 20260502033804 | 36 | 315 | 3.0 | 8.0 | 0.00 | 0.61 | 0.61 | 70 | 1026.7 |
| 20260502033303 | 36 | 270 | 7.0 | 8.0 | 0.00 | 0.61 | 0.61 | 70 | 1026.7 |
| 20260502032803 | 36 | 270 | 8.0 | 9.0 | 0.00 | 0.61 | 0.61 | 69 | 1026.4 |
| 20260502032305 | 36 | 270 | 6.0 | 8.0 | 0.00 | 0.61 | 0.61 | 69 | 1026.4 |
| 20260502031804 | 36 | 247 | 5.0 | 6.0 | 0.00 | 0.61 | 0.61 | 69 | 1026.4 |
| 20260502030803 | 36 | 247 | 5.0 | 7.0 | 0.00 | 0.61 | 0.61 | 70 | 1026.4 |
| 20260502030303 | 36 | 270 | 6.0 | 7.0 | 0.00 | 0.61 | 0.61 | 70 | 1026.4 |
| 20260502025306 | 35 | 270 | 7.0 | 8.0 | 0.00 | 0.61 | 0.61 | 71 | 1026.0 |
| 20260502024803 | 35 | 261 | 7.0 | 8.0 | 0.00 | 0.61 | 0.61 | 72 | 1026.0 |
| 20260502024304 | 34 | 234 | 7.0 | 8.0 | 0.00 | 0.61 | 0.61 | 72 | 1026.0 |
| 20260502023803 | 34 | 225 | 7.0 | 8.0 | 0.00 | 0.61 | 0.61 | 73 | 1025.7 |
| 20260502023303 | 34 | 225 | 7.0 | 8.0 | 0.00 | 0.61 | 0.61 | 72 | 1025.7 |
| 20260502022803 | 34 | 225 | 6.0 | 7.0 | 0.00 | 0.61 | 0.61 | 72 | 1025.7 |
| 20260502022306 | 34 | 225 | 6.0 | 7.0 | 0.00 | 0.61 | 0.61 | 72 | 1025.7 |
| 20260502021804 | 35 | 225 | 6.0 | 7.0 | 0.00 | 0.61 | 0.61 | 71 | 1025.7 |
| 20260502021304 | 35 | 225 | 6.0 | 7.0 | 0.00 | 0.61 | 0.61 | 71 | 1025.7 |
| 20260502020303 | 34 | 225 | 6.0 | 8.0 | 0.00 | 0.61 | 0.61 | 71 | 1025.7 |
| 20260502015803 | 35 | 225 | 6.0 | 7.0 | 0.00 | 0.61 | 0.61 | 72 | 1025.4 |
| 20260502015305 | 35 | 225 | 5.0 | 7.0 | 0.00 | 0.61 | 0.61 | 72 | 1025.4 |
| 20260502014304 | 36 | 225 | 6.0 | 7.0 | 0.00 | 0.61 | 0.61 | 72 | 1025.4 |
| 20260502013804 | 36 | 225 | 7.0 | 10.0 | 0.00 | 0.61 | 0.61 | 72 | 1025.4 |
| 20260502013304 | 37 | 225 | 7.0 | 9.0 | 0.00 | 0.61 | 0.61 | 72 | 1025.3 |
| 20260502012804 | 37 | 225 | 7.0 | 9.0 | 0.00 | 0.61 | 0.61 | 72 | 1025.4 |
| 20260502012306 | 38 | 225 | 7.0 | 9.0 | 0.00 | 0.61 | 0.61 | 70 | 1025.0 |
| 20260502011803 | 39 | 225 | 7.0 | 8.0 | 0.00 | 0.61 | 0.61 | 67 | 1025.0 |
| 20260502011303 | 40 | 202 | 5.0 | 6.0 | 0.00 | 0.61 | 0.61 | 63 | 1025.3 |
| 20260502010803 | 41 | 180 | 5.0 | 6.0 | 0.00 | 0.61 | 0.61 | 61 | 1025.0 |
| 20260502010303 | 41 | 180 | 5.0 | 6.0 | 0.00 | 0.61 | 0.61 | 60 | 1025.0 |
| 20260502005803 | 41 | 180 | 5.0 | 7.0 | 0.00 | 0.61 | 0.61 | 59 | 1025.0 |
| 20260502005306 | 41 | 150 | 3.0 | 7.0 | 0.00 | 0.61 | 0.61 | 59 | 1025.0 |
| 20260502004304 | 43 | 90 | 7.0 | 9.0 | 0.00 | 0.61 | 0.61 | 54 | 1025.0 |
| 20260502003804 | 42 | 45 | 3.0 | 6.0 | 0.00 | 0.61 | 0.61 | 53 | 1025.0 |
| 20260502002804 | 43 | 270 | 5.0 | 6.0 | 0.00 | 0.62 | 0.61 | 53 | 1025.0 |
| 20260502002305 | 42 | 295 | 3.0 | 8.0 | 0.00 | 0.62 | 0.61 | 55 | 1024.7 |
| 20260502001803 | 42 | 270 | 5.0 | 8.0 | 0.00 | 0.62 | 0.61 | 55 | 1024.7 |
| 20260502001303 | 42 | 299 | 6.0 | 8.0 | 0.00 | 0.62 | 0.61 | 55 | 1025.0 |
| 20260502000804 | 42 | 270 | 5.0 | 7.0 | 0.00 | 0.62 | 0.61 | 54 | 1024.7 |
| 20260502000303 | 42 | 270 | 6.0 | 8.0 | 0.00 | 0.62 | 0.61 | 54 | 1024.7 |
| 20260501235803 | 42 | 247 | 5.0 | 6.0 | 0.00 | 0.62 | 0.61 | 54 | 1024.7 |
| 20260501234804 | 42 | 270 | 3.0 | 6.0 | 0.00 | 0.62 | 0.61 | 55 | 1024.7 |
| 20260501234303 | 41 | 270 | 6.0 | 8.0 | 0.00 | 0.62 | 0.61 | 55 | 1024.7 |
| 20260501233804 | 42 | 304 | 6.0 | 8.0 | 0.00 | 0.62 | 0.61 | 55 | 1024.7 |
| 20260501233304 | 42 | 292 | 6.0 | 9.0 | 0.00 | 0.62 | 0.61 | 55 | 1024.7 |
| 20260501232804 | 42 | 284 | 6.0 | 8.0 | 0.00 | 0.62 | 0.61 | 54 | 1024.7 |
| 20260501231803 | 42 | 315 | 3.0 | 8.0 | 0.00 | 0.63 | 0.61 | 53 | 1025.0 |
| 20260501231303 | 43 | 315 | 3.0 | 8.0 | 0.00 | 0.63 | 0.61 | 53 | 1024.7 |
| 20260501230803 | 43 | 306 | 6.0 | 8.0 | 0.00 | 0.63 | 0.61 | 53 | 1024.7 |
| 20260501230304 | 42 | 271 | 2.0 | 6.0 | 0.00 | 0.63 | 0.61 | 54 | 1024.7 |
| 20260501225804 | 41 | 315 | 5.0 | 8.0 | 0.00 | 0.63 | 0.61 | 56 | 1024.7 |
| 20260501225306 | 41 | 292 | 5.0 | 7.0 | 0.00 | 0.63 | 0.61 | 58 | 1024.7 |
| 20260501224803 | 42 | 253 | 5.0 | 8.0 | 0.00 | 0.63 | 0.61 | 55 | 1024.7 |
| 20260501224303 | 42 | 270 | 5.0 | 7.0 | 0.00 | 0.64 | 0.61 | 54 | 1024.7 |
| 20260501223804 | 43 | 303 | 5.0 | 6.0 | 0.00 | 0.64 | 0.61 | 54 | 1024.7 |
| 20260501223304 | 43 | 257 | 3.0 | 5.0 | 0.00 | 0.64 | 0.61 | 54 | 1024.7 |
| 20260501222305 | 42 | 270 | 3.0 | 6.0 | 0.00 | 0.65 | 0.61 | 54 | 1024.7 |
| 20260501221303 | 46 | 225 | 4.0 | 6.0 | 0.00 | 0.65 | 0.61 | 49 | 1024.7 |
| 20260501220804 | 47 | 225 | 3.0 | 3.0 | 0.00 | 0.65 | 0.61 | 47 | 1025.0 |
| 20260501220304 | 48 | 225 | 2.0 | 6.0 | 0.00 | 0.66 | 0.61 | 46 | 1025.0 |
| 20260501215305 | 49 | 180 | 3.0 | 5.0 | 0.00 | 0.66 | 0.61 | 45 | 1025.0 |
| 20260501214804 | 48 | 225 | 3.0 | 5.0 | 0.00 | 0.66 | 0.61 | 47 | 1025.0 |
| 20260501214304 | 48 | 225 | 1.0 | 2.0 | 0.00 | 0.66 | 0.61 | 47 | 1025.0 |
| 20260501213804 | 48 | 205 | 2.0 | 2.0 | 0.00 | 0.66 | 0.61 | 47 | 1025.0 |
| 20260501213304 | 47 | 202 | 0.0 | 2.0 | 0.00 | 0.66 | 0.61 | 46 | 1025.0 |
| 20260501212803 | 47 | 202 | 0.0 | 1.0 | 0.00 | 0.66 | 0.61 | 45 | 1025.0 |
| 20260501212306 | 47 | 202 | 1.0 | 2.0 | 0.00 | 0.66 | 0.61 | 44 | 1025.0 |
| 20260501211803 | 47 | 202 | 0.0 | 2.0 | 0.00 | 0.66 | 0.61 | 44 | 1025.0 |
| 20260501211304 | 48 | 202 | 1.0 | 2.0 | 0.00 | 0.66 | 0.61 | 42 | 1025.0 |
| 20260501210804 | 50 | 207 | 0.0 | 2.0 | 0.01 | 0.67 | 0.61 | 42 | 1025.4 |
| 20260501210304 | 50 | 225 | 0.0 | 0.0 | 0.01 | 0.67 | 0.61 | 42 | 1025.4 |
| 20260501205804 | 49 | 225 | 0.0 | 0.0 | 0.02 | 0.67 | 0.61 | 42 | 1025.0 |
| 20260501205306 | 49 | 225 | 0.0 | 0.0 | 0.03 | 0.67 | 0.61 | 42 | 1025.3 |
| 20260501204803 | 49 | 225 | 0.0 | 1.0 | 0.04 | 0.67 | 0.61 | 42 | 1025.4 |
| 20260501204304 | 49 | 225 | 1.0 | 2.0 | 0.05 | 0.67 | 0.61 | 42 | 1025.4 |
| 20260501203803 | 49 | 225 | 2.0 | 2.0 | 0.06 | 0.67 | 0.61 | 42 | 1025.4 |